This is the latest recevied weather packets stored in our database for station/object KF4CQ. If no packets are shown the sender has not sent any weather packets the latest 1 day(s).
| Time | Temp. | Humidity | Pressure | Rain* | Wind** | Luminosity | Snow |
|---|---|---|---|---|---|---|---|
| 1778020426 | 27.78° C | 56% | 1015.4 hPa | 0 mm | 1.79 m/s, 70° | 55 W/m² | - |
| 1778020122 | 28.33° C | 55% | 1015.5 hPa | 0 mm | 0.89 m/s, 112° | 55 W/m² | - |
| 1778019818 | 28.33° C | 54% | 1015.4 hPa | 0 mm | 0.89 m/s, 82° | 55 W/m² | - |
| 1778019515 | 28.89° C | 52% | 1015.4 hPa | 0 mm | 0 m/s | 52 W/m² | - |
| 1778019212 | 28.89° C | 52% | 1015.3 hPa | 0 mm | 0.89 m/s, 91° | 62 W/m² | - |
| 1778018909 | 28.89° C | 50% | 1015.6 hPa | 0 mm | 0.45 m/s, 79° | 61 W/m² | - |
| 1778018606 | 28.89° C | 49% | 1015.6 hPa | 0 mm | 1.34 m/s, 114° | 69 W/m² | - |
| 1778018304 | 29.44° C | 46% | 1015.6 hPa | 0 mm | 0.89 m/s, 100° | 68 W/m² | - |
| 1778018002 | 29.44° C | 44% | 1015.5 hPa | 0 mm | 0.89 m/s, 70° | 63 W/m² | - |
| 1778017700 | 29.44° C | 45% | 1015.6 hPa | 0 mm | 1.34 m/s, 78° | 81 W/m² | - |
| 1778017397 | 30° C | 43% | 1015.6 hPa | 0 mm | 0.45 m/s, 75° | 76 W/m² | - |
| 1778017094 | 30° C | 44% | 1015.5 hPa | 0 mm | 0 m/s | 89 W/m² | - |
| 1778016792 | 29.44° C | 44% | 1015.5 hPa | 0 mm | 0 m/s | 218 W/m² | - |
| 1778016487 | 30° C | 44% | 1015.3 hPa | 0 mm | 1.34 m/s, 65° | 104 W/m² | - |
| 1778016185 | 30° C | 43% | 1015.6 hPa | 0 mm | 0.45 m/s, 63° | 143 W/m² | - |
| 1778015881 | 30.56° C | 43% | 1015.6 hPa | 0 mm | 0.45 m/s, 57° | 164 W/m² | - |
| 1778015579 | 30° C | 44% | 1015.3 hPa | 0 mm | 0.45 m/s, 54° | 227 W/m² | - |
| 1778015275 | 29.44° C | 45% | 1015.4 hPa | 0 mm | 0.89 m/s, 50° | 328 W/m² | - |
| 1778014972 | 29.44° C | 45% | 1015.3 hPa | 0 mm | 0.89 m/s, 68° | 423 W/m² | - |
| 1778014669 | 30° C | 45% | 1015.4 hPa | 0 mm | 0.89 m/s, 111° | 103 W/m² | - |
| 1778014367 | 30° C | 44% | 1015.5 hPa | 0 mm | 0 m/s | 391 W/m² | - |
| 1778014063 | 30.56° C | 44% | 1015.3 hPa | 0 mm | 0 m/s | 147 W/m² | - |
| 1778013762 | 29.44° C | 46% | 1015.4 hPa | 0 mm | 0.89 m/s, 110° | 135 W/m² | - |
| 1778013458 | 29.44° C | 45% | 1015.5 hPa | 0 mm | 0.45 m/s, 115° | 344 W/m² | - |
| 1778013155 | 29.44° C | 46% | 1015.5 hPa | 0 mm | 0.45 m/s, 61° | 229 W/m² | - |
* Rain latest hour (hover to see other rain measurements)
** Current wind speed in m/s (hover to see current wind gust speed)